Theta_e
295 290 286 285 286 288 289 288 288 289 289 288 288 286 285 284 286 290 290 288 291 288 289 287 287 284 284 284 285 286 287 286 285 285 285 285 285 285 285 285 286 286 286 289 289 289 289 290 290 290 291 290 290 290 291 291 291 291 290 290 289 291 291 291 291 291 291 291 291 292 291 291 292 292 294 295 296 297 297 296 295 295 295 294 294 294
298 288 286 288 289 288 288 287 287 288 288 289 287 286 284 286 283 287 287 289 290 286 286 287 287 283 283 284 284 285 285 283 284 284 284 284 284 285 285 285 285 286 288 288 288 288 289 289 289 290 289 290 289 289 290 290 290 291 291 290 289 290 290 291 291 291 291 291 291 291 291 291 291 292 292 292 293 294 295 296 295 295 295 295 295 295
289 286 289 289 289 287 287 287 287 287 288 287 285 285 284 285 286 288 288 288 288 287 287 286 286 283 282 283 284 284 283 284 284 284 283 284 284 284 284 285 285 285 285 286 287 287 287 288 288 288 288 288 289 289 289 290 290 291 291 290 290 290 290 290 291 291 290 290 292 292 292 292 291 293 293 292 293 294 294 294 295 295 295 295 294 295
286 288 290 288 287 288 288 288 287 286 287 286 286 284 282 285 283 282 288 287 289 286 285 287 285 282 283 283 283 283 284 283 285 285 284 285 284 284 284 285 285 285 285 285 285 285 287 287 287 287 287 288 288 288 288 288 289 290 290 290 289 289 289 290 290 290 289 290 291 292 292 293 293 292 294 294 294 294 294 294 294 295 295 295 294 294
287 290 289 287 286 287 287 287 289 289 286 287 285 284 283 283 284 283 284 286 287 286 285 285 284 281 282 282 282 284 284 284 284 285 285 285 285 285 286 285 285 284 285 284 285 285 285 285 286 286 286 287 287 288 288 288 288 289 289 289 289 288 288 289 289 289 289 289 289 290 291 292 292 292 292 292 291 292 293 293 294 294 295 294 294 294
289 289 287 288 287 287 288 288 286 286 285 285 285 283 284 285 283 285 285 284 285 283 284 285 279 281 282 282 282 283 284 283 283 283 283 284 284 285 284 284 285 285 286 285 284 285 285 285 285 286 286 285 285 286 287 289 288 289 289 288 287 287 288 288 288 287 287 287 286 286 286 286 287 288 289 288 289 290 290 291 293 293 294 294 294 294
289 288 287 288 287 287 287 286 285 286 285 283 282 284 285 284 284 283 282 284 280 278 283 285 279 276 282 280 281 282 282 281 283 282 283 283 284 284 284 284 284 284 284 285 285 285 284 284 284 284 285 285 285 286 287 288 289 289 289 287 287 287 287 288 287 287 287 286 285 285 285 286 286 286 288 289 290 290 291 292 292 292 293 294 294 294
291 290 290 288 287 288 287 286 286 285 285 282 284 285 285 283 283 283 282 283 282 284 285 283 285 278 278 282 282 282 281 281 281 282 282 282 283 283 284 284 284 285 284 284 284 284 284 284 284 283 284 284 285 286 287 288 288 287 288 288 287 287 286 287 287 287 287 285 285 285 284 285 286 286 286 288 288 290 291 290 290 291 292 293 293 293
287 289 288 288 287 287 284 285 287 286 285 285 287 285 283 283 283 283 283 283 282 278 280 283 284 278 277 281 280 281 280 280 279 280 282 283 283 283 283 284 284 285 285 284 283 283 283 283 283 284 284 284 285 285 286 287 286 287 288 288 287 286 286 286 287 287 287 287 286 286 285 284 286 287 288 289 289 289 290 289 290 290 290 291 292 292
289 288 289 287 286 284 287 288 288 287 284 289 288 286 282 283 281 282 284 283 280 277 276 278 282 275 275 282 281 280 280 279 278 280 282 283 283 283 283 284 284 284 284 284 284 283 283 283 283 284 285 285 285 286 286 287 287 286 286 287 286 286 286 286 286 286 286 287 287 286 286 285 285 286 287 287 287 287 288 288 288 288 289 289 290 290
285 290 290 289 286 287 288 289 287 288 289 290 288 286 284 281 283 281 282 280 280 275 277 279 281 279 272 279 281 281 279 276 279 281 282 283 283 284 284 284 284 283 283 283 283 283 283 284 283 284 283 284 285 285 286 286 286 286 287 287 286 286 286 286 286 286 286 286 286 286 286 285 285 286 286 285 285 286 286 287 288 288 288 289 289 289
290 289 289 288 290 290 288 287 285 286 287 286 286 283 283 282 283 282 281 283 274 273 278 278 279 278 270 276 280 280 279 279 278 279 280 281 282 283 283 284 284 283 283 282 282 281 282 282 283 283 283 283 284 284 285 285 286 286 287 286 285 285 286 286 286 286 285 285 286 286 286 285 285 286 286 285 285 285 285 286 286 287 288 288 289 289
285 286 284 286 290 287 287 286 287 285 289 288 285 283 277 275 276 272 277 272 273 271 277 279 278 276 277 281 280 279 279 279 281 282 281 281 282 283 283 284 283 282 282 282 281 281 281 282 282 282 282 283 283 283 284 285 285 286 286 285 284 284 285 285 285 285 286 286 286 286 286 286 286 286 286 286 286 286 286 286 286 286 286 287 287 288
285 284 286 286 285 287 286 284 283 283 285 284 282 279 275 271 270 268 271 274 274 277 280 278 280 275 280 280 280 280 281 282 282 282 283 282 282 283 282 282 281 281 281 281 281 281 281 281 281 282 282 283 283 284 284 285 285 285 285 285 284 283 284 285 285 285 285 286 286 286 286 286 286 286 286 286 286 286 287 287 286 286 286 286 287 287
279 280 284 286 283 287 286 285 285 283 284 283 284 281 277 275 270 267 271 268 270 272 276 281 275 274 272 278 281 282 282 283 284 284 284 284 283 282 281 281 281 280 280 281 281 281 281 281 282 282 282 283 283 284 284 284 285 285 284 283 283 283 284 284 285 285 285 285 286 286 286 286 286 286 286 286 287 286 286 287 286 286 286 286 287 287
279 280 285 285 285 286 284 284 285 285 284 283 283 285 279 276 281 273 275 273 272 272 272 275 274 278 278 282 283 281 283 283 283 283 282 281 281 280 279 279 279 279 280 280 280 280 281 281 282 282 282 282 283 283 284 284 284 283 283 283 283 283 284 284 285 285 285 285 286 286 286 286 286 286 286 286 287 287 287 287 287 286 287 287 287 288
281 280 284 286 283 286 284 285 285 286 277 282 282 277 279 284 280 277 277 279 276 274 272 278 276 279 283 281 278 281 281 282 281 281 280 279 279 279 278 278 279 279 279 280 280 280 280 281 282 282 282 282 283 283 283 283 282 283 283 283 283 283 284 284 284 285 285 285 285 285 286 286 286 286 286 285 286 286 287 287 287 287 287 287 287 287
278 280 285 283 283 284 282 285 287 286 284 284 277 280 284 282 282 276 269 272 271 268 270 275 272 272 273 270 279 280 279 279 279 278 278 278 278 277 277 277 278 278 279 280 280 281 281 281 282 282 282 283 283 283 282 282 283 283 283 283 283 283 283 284 284 284 285 285 285 285 285 286 286 286 286 286 286 286 286 286 287 287 287 287 287 287
282 278 283 281 282 284 281 285 284 284 286 283 280 285 278 272 273 278 273 266 265 265 268 271 273 273 274 274 279 278 277 277 277 277 277 276 276 276 277 277 278 279 279 279 279 280 280 281 281 282 282 283 283 283 283 283 283 283 283 283 283 282 283 283 284 285 285 285 285 285 285 285 285 286 286 286 286 286 286 285 286 286 286 287 287 287
283 277 281 281 282 284 283 284 278 280 285 285 287 282 282 280 276 272 274 272 273 267 266 267 271 268 276 277 277 277 277 277 276 276 275 275 276 276 276 277 277 278 278 278 279 279 280 281 281 282 282 281 281 282 283 283 283 283 283 283 282 283 283 283 284 284 284 285 285 285 285 285 286 286 286 286 285 285 285 285 285 286 285 286 287 287
282 281 275 283 286 284 279 281 279 280 279 280 280 278 279 278 280 277 274 272 270 267 267 266 264 269 276 280 280 278 278 277 276 274 275 275 276 276 277 277 277 278 278 278 279 279 280 280 281 281 281 281 282 282 282 282 282 282 282 282 282 282 282 283 283 284 284 284 284 284 284 284 285 285 285 285 285 285 285 285 285 286 286 286 286 286
281 281 276 280 280 280 279 281 279 282 282 280 279 276 277 274 272 269 269 274 271 269 266 265 263 270 277 282 280 279 279 277 275 275 274 275 276 276 277 277 278 277 278 278 279 279 280 280 281 281 281 281 281 281 281 281 281 281 281 282 283 283 282 282 283 283 283 284 284 283 283 284 284 285 285 285 285 285 285 285 285 285 285 285 285 286
283 281 279 277 279 279 278 279 282 283 282 280 280 277 278 276 275 273 266 270 272 272 272 270 266 269 280 282 280 280 278 276 276 275 274 275 275 276 277 278 278 278 278 278 279 279 280 280 280 280 280 280 280 280 280 281 281 281 282 282 282 282 282 283 283 283 283 283 282 283 283 283 283 284 284 284 284 284 284 285 285 285 284 284 285 286
282 279 276 279 281 280 280 281 281 282 281 279 277 278 277 274 274 273 273 272 268 270 268 268 265 270 278 281 280 279 278 277 276 276 275 275 276 276 276 277 278 278 278 279 279 279 279 280 280 279 279 279 279 279 279 280 281 281 281 281 281 281 282 282 283 283 282 282 282 283 283 283 283 283 283 283 283 283 284 284 284 285 284 285 285 285
278 280 278 275 275 278 277 278 278 278 280 279 276 275 274 275 272 269 268 268 268 270 270 267 261 266 277 280 280 278 277 276 275 276 276 275 276 276 276 277 277 278 278 278 278 278 278 278 278 278 278 279 279 279 279 280 280 280 280 280 280 280 281 282 282 282 281 281 281 282 282 282 283 282 282 283 283 283 284 284 284 285 285 285 284 285
281 279 278 271 269 267 267 269 271 274 277 277 276 275 273 272 272 272 270 270 265 270 270 266 265 272 276 277 276 276 275 274 275 275 276 276 276 275 276 277 277 277 277 277 277 277 277 277 278 278 278 278 278 278 279 279 279 279 278 278 279 279 279 280 281 281 280 280 280 281 281 282 282 282 282 282 283 283 283 284 284 285 285 285 284 284
280 279 279 277 274 273 274 277 280 281 279 275 276 273 272 272 271 273 273 270 267 268 266 268 270 270 271 272 273 274 274 273 273 274 274 274 275 276 276 276 277 277 277 277 277 276 277 277 277 277 278 278 278 278 278 277 277 276 276 277 278 279 279 280 280 280 280 280 280 279 280 281 282 282 282 282 283 283 283 283 284 284 284 284 284 284
278 280 279 277 277 278 279 279 280 280 276 277 276 274 273 272 271 271 269 267 272 268 264 270 271 267 269 271 272 272 273 273 273 274 274 274 275 275 276 276 278 277 277 277 276 276 275 276 277 277 277 277 277 278 277 276 276 276 276 277 278 278 279 279 279 279 279 279 279 279 279 281 282 282 282 282 282 282 283 283 283 284 285 284 284 284
279 277 275 272 275 278 279 279 279 278 277 276 276 274 273 273 270 269 270 272 271 266 264 269 270 268 269 271 272 273 273 273 273 274 275 275 276 276 276 275 275 276 276 276 275 275 275 276 276 276 276 277 277 275 275 275 275 276 276 276 277 278 278 278 277 277 277 278 278 279 280 281 282 283 283 283 282 283 283 283 284 284 284 284 284 284
278 278 275 274 275 276 278 278 277 276 276 275 274 274 274 273 272 273 272 272 270 268 270 270 269 269 271 272 273 273 274 274 274 275 275 275 274 275 275 275 275 275 275 275 275 275 275 276 276 276 276 276 274 274 273 274 274 274 274 274 275 276 277 277 276 276 276 277 278 279 280 281 282 282 283 283 283 283 283 283 284 284 284 284 284 284
277 277 276 271 272 275 277 276 276 276 274 271 273 274 274 274 273 272 271 271 271 270 270 269 268 268 273 274 273 275 275 275 275 274 274 274 275 274 274 274 275 274 275 274 275 274 275 275 275 275 274 274 273 273 273 273 274 274 274 274 274 275 277 277 276 275 276 277 278 279 280 280 281 282 281 281 282 282 283 283 283 283 283 283 283 283
277 276 271 271 272 274 276 275 275 275 273 273 272 273 273 271 269 270 268 271 269 267 268 268 266 267 272 274 274 274 274 273 272 273 273 273 274 274 273 273 274 274 274 274 274 274 274 274 274 273 273 273 273 272 272 272 273 273 273 273 274 275 275 275 274 274 275 277 278 279 279 279 280 280 280 281 281 282 283 283 283 283 283 283 283 283
270 274 274 272 272 273 276 275 274 272 270 269 270 272 272 272 272 272 272 272 271 271 267 265 266 271 272 274 272 272 273 273 273 273 273 273 274 274 273 273 273 273 274 274 274 274 273 274 274 273 272 271 272 272 272 272 272 273 273 272 272 272 272 273 274 274 275 276 277 278 279 279 279 279 280 280 281 282 282 282 282 282 283 283 283 284
270 274 273 272 270 271 274 273 274 272 268 267 275 276 274 271 270 269 269 270 272 272 270 271 271 273 273 272 271 271 271 272 273 274 275 274 274 273 273 273 273 274 274 274 274 273 273 274 273 272 272 272 272 272 272 272 272 273 273 272 272 272 273 274 274 275 275 276 277 277 278 278 279 279 279 280 280 281 282 282 282 283 283 284 284 283
274 274 272 269 269 269 271 272 271 267 267 274 277 277 276 274 273 271 271 272 272 272 272 271 272 272 272 273 273 273 273 274 275 274 274 275 275 274 273 273 273 273 273 273 273 273 273 274 272 271 270 270 271 271 271 271 272 272 272 272 272 272 272 273 273 274 274 275 275 276 276 277 278 278 279 279 280 281 281 281 282 282 283 283 283 283
276 275 272 271 270 272 270 268 262 266 273 275 276 276 277 275 274 272 270 272 272 272 272 271 272 272 273 273 274 274 274 274 274 275 275 275 276 274 273 273 273 273 273 273 273 273 273 273 270 270 270 271 271 271 271 271 272 271 271 272 271 271 272 272 273 273 274 274 274 275 276 276 277 278 279 279 280 280 280 280 281 281 283 283 283 283
277 274 273 270 272 266 268 267 267 273 272 273 272 273 273 270 270 268 264 268 272 272 272 272 272 272 273 273 273 274 274 273 271 272 275 275 275 275 274 274 274 273 273 273 274 273 274 272 272 272 271 271 270 270 271 271 271 270 270 270 271 270 271 272 272 272 273 273 273 274 275 276 276 277 278 279 279 279 279 280 280 282 283 282 282 282
279 275 275 271 269 269 266 265 267 267 265 270 273 275 276 275 274 273 269 266 273 273 274 272 271 272 272 272 272 273 273 269 266 268 273 274 275 274 275 274 275 274 274 273 274 274 273 272 272 271 270 269 269 270 271 270 269 269 269 269 270 270 270 271 271 272 272 272 273 275 275 276 276 277 278 279 279 279 280 280 281 282 283 282 282 282
275 275 273 272 268 267 266 264 265 263 268 272 272 274 276 276 274 274 268 264 273 274 274 273 272 272 272 271 271 272 268 264 265 268 272 273 274 274 273 274 274 274 274 273 273 273 273 272 271 270 270 269 269 270 270 269 269 269 268 268 269 269 269 270 270 271 271 272 274 274 274 275 276 277 278 279 279 280 280 280 281 282 283 283 283 282
273 271 272 271 266 268 266 264 262 265 265 271 273 274 276 276 275 271 261 262 271 273 273 273 272 272 272 272 272 270 267 263 265 269 273 274 274 274 273 273 272 273 273 273 273 273 272 272 270 269 269 268 268 270 270 269 268 268 267 268 268 268 269 269 270 270 271 273 274 274 274 275 276 277 278 279 280 280 281 281 281 282 282 282 282 282
271 271 270 268 268 268 268 266 269 270 274 274 274 275 276 276 273 264 258 265 273 273 274 273 273 273 273 271 271 268 270 271 271 273 274 274 273 273 273 273 273 273 272 272 272 273 271 270 269 268 268 268 269 269 269 268 267 267 267 268 267 268 269 270 270 270 271 272 273 273 273 275 276 276 278 279 280 281 281 281 281 282 282 282 282 282
271 268 268 268 268 266 266 265 266 269 272 274 276 276 276 271 261 260 269 275 274 273 274 274 273 273 273 272 271 271 272 273 273 273 273 273 272 272 272 272 272 273 273 273 272 271 270 269 269 268 268 269 269 269 268 268 266 266 267 267 267 268 270 270 270 271 271 272 272 272 273 274 275 276 277 279 280 280 281 281 282 282 282 282 282 282
271 268 269 268 269 271 269 266 265 262 271 276 275 274 275 266 267 273 274 274 275 274 274 274 274 273 274 272 272 272 272 272 272 272 272 272 271 271 271 271 271 271 270 270 270 270 269 268 268 267 267 268 268 268 268 267 266 266 266 266 267 269 269 269 270 270 271 271 271 272 272 273 274 275 277 278 280 280 280 281 281 282 282 282 281 280
272 269 269 270 268 266 266 262 262 270 274 277 275 268 272 273 275 275 274 272 274 274 274 273 273 274 274 273 272 271 271 271 271 271 271 271 271 271 271 271 271 270 270 270 270 269 269 267 267 267 267 267 267 267 267 267 266 266 266 266 268 269 269 269 270 270 270 271 271 271 272 273 274 276 277 278 280 281 281 281 281 282 282 282 280 277
275 272 273 269 271 268 267 270 274 276 276 278 276 275 275 276 277 276 275 274 273 273 275 273 273 274 274 273 272 271 270 271 270 271 270 270 270 270 270 270 270 270 269 269 268 268 268 267 266 266 266 267 266 267 267 267 266 265 265 267 268 268 268 269 269 269 269 270 270 271 272 273 274 275 277 279 280 280 280 281 282 281 282 282 278 276
277 277 277 274 273 275 276 276 278 277 276 275 277 277 276 276 277 277 275 274 274 275 275 273 274 274 273 273 271 271 270 270 270 270 270 270 269 270 270 270 269 269 269 268 268 267 267 267 267 266 265 266 266 266 267 267 266 265 266 268 268 268 268 268 268 269 269 269 270 270 271 272 273 274 276 278 279 280 281 281 281 281 281 279 277 276
274 275 276 271 274 270 267 276 274 274 275 275 276 277 278 277 276 276 275 275 275 275 275 275 274 274 273 272 271 270 270 270 270 269 269 269 269 269 269 268 268 268 267 267 267 267 266 266 265 265 265 264 265 266 266 266 267 267 267 267 268 268 268 268 268 268 268 268 269 270 271 272 273 274 275 277 278 279 280 281 282 282 280 278 276 275
272 277 273 274 273 271 270 273 275 276 276 276 276 275 275 276 276 276 276 276 276 275 275 275 275 273 273 271 271 270 270 270 269 269 268 268 268 268 268 268 267 267 267 267 267 267 266 265 265 264 264 264 265 265 266 266 266 267 267 268 268 268 268 268 268 267 268 268 269 270 271 271 273 273 274 276 277 277 279 280 281 281 278 276 275 274
274 275 270 272 269 272 275 276 275 275 276 275 276 277 276 276 276 275 276 275 275 274 274 274 274 273 272 271 272 270 269 269 270 269 268 268 268 268 267 267 267 267 266 266 266 266 265 265 264 264 264 264 265 265 265 266 266 267 267 267 268 268 267 267 267 267 267 268 269 269 271 272 272 273 274 275 276 277 278 279 280 280 278 278 277 276
274 271 274 272 268 269 269 271 274 268 268 272 275 276 276 276 276 275 275 274 274 273 273 272 272 273 273 272 271 270 269 269 269 269 268 267 267 267 267 267 266 266 266 266 266 266 265 265 264 263 263 264 265 265 265 265 266 266 267 267 267 267 267 266 266 267 267 268 269 270 270 271 272 272 273 274 275 276 277 279 282 280 278 276 278 278
273 273 272 269 269 268 272 274 275 274 274 274 275 276 276 276 276 274 273 273 274 274 273 272 271 271 271 271 272 270 269 269 268 268 267 267 267 267 267 266 265 265 265 265 265 264 264 264 264 263 263 264 264 264 264 265 265 266 267 267 267 267 266 266 266 266 267 268 268 269 270 271 271 272 273 274 275 275 276 278 281 278 278 278 277 278
Wind_Speed
5 11 8 6 4 7 5 4 4 3 2 2 2 3 5 6 11 7 4 3 6 8 1 4 6 8 7 7 7 7 8 12 13 13 12 12 11 12 12 13 13 14 13 13 13 15 16 16 16 15 14 16 18 16 16 16 16 16 14 14 16 14 13 12 12 12 12 12 12 10 10 11 11 10 10 8 6 4 5 6 6 6 6 8 8 9
0 13 7 5 6 6 4 4 1 1 1 3 4 3 7 5 6 14 8 3 3 5 0 2 4 8 7 7 8 7 9 14 12 12 13 12 11 11 12 13 14 12 11 15 16 18 17 16 18 16 15 18 20 18 18 17 17 16 15 14 14 13 13 13 12 12 11 11 11 12 11 11 10 10 9 9 9 9 8 7 6 6 6 7 8 8
13 8 5 5 2 1 1 2 0 2 1 2 2 5 5 7 8 14 1 2 2 5 3 3 2 5 6 7 7 9 9 9 10 11 11 11 11 10 11 12 13 14 15 16 16 17 17 19 19 16 16 17 17 17 17 17 17 16 13 14 14 13 13 12 12 12 12 12 12 12 11 11 11 9 8 9 9 8 8 8 7 7 6 6 7 8
8 8 5 1 2 2 1 2 1 1 3 2 4 6 8 9 8 6 2 2 3 2 4 1 5 6 6 7 8 6 7 6 8 9 9 9 10 10 11 12 12 14 15 18 18 19 18 18 18 18 18 18 17 17 17 17 16 13 13 14 14 13 13 12 12 13 15 15 15 14 12 12 11 10 9 9 8 6 7 7 7 6 6 7 7 8
7 3 1 1 1 3 2 2 4 3 2 2 3 3 7 10 9 5 8 12 13 1 2 8 5 4 6 5 4 4 4 6 6 7 8 8 9 8 8 10 12 15 15 16 18 19 19 20 20 20 20 19 18 17 16 16 14 11 14 14 13 13 12 12 13 14 15 15 15 14 14 12 11 10 9 9 8 7 7 8 7 6 6 7 8 9
6 2 1 2 1 4 2 4 6 5 2 4 5 5 8 10 12 12 10 11 6 1 5 7 7 2 7 6 3 4 2 5 6 8 9 9 9 10 12 12 12 13 13 15 17 19 19 19 21 21 22 21 20 20 17 15 14 14 13 12 11 11 10 10 11 12 12 13 14 15 15 14 12 12 10 10 10 10 10 9 8 8 8 7 7 8
3 1 0 3 2 1 3 3 1 3 3 3 7 2 5 7 10 10 8 6 7 8 3 0 5 9 7 7 7 5 4 6 5 8 9 9 10 11 11 12 13 14 16 16 17 19 20 22 24 25 23 22 20 19 18 15 14 14 11 10 10 10 10 10 10 10 8 10 11 14 15 14 14 14 12 11 12 11 10 10 11 9 9 8 8 7
1 0 2 2 3 5 5 5 2 1 4 5 2 5 9 8 9 6 3 2 4 1 9 1 2 7 10 5 7 6 3 4 6 7 8 8 10 10 10 11 13 12 15 16 18 20 21 22 23 25 24 22 23 23 19 16 15 17 15 12 10 9 10 11 10 11 10 11 11 13 14 13 13 13 14 14 12 12 11 11 12 10 9 9 8 8
4 3 5 8 7 4 5 4 4 2 2 5 5 7 9 8 8 4 3 4 1 3 2 3 3 8 8 3 4 6 5 1 4 7 6 8 9 11 11 12 14 14 15 17 17 21 22 23 25 24 23 24 24 23 20 17 17 16 16 14 12 12 12 12 15 15 15 14 13 13 13 14 13 14 13 13 12 12 12 13 11 11 11 10 9 8
1 1 2 1 3 7 5 4 1 4 5 3 9 5 3 2 2 2 2 4 2 1 3 6 4 10 13 8 4 6 3 3 6 7 10 11 12 13 12 15 16 15 15 16 18 19 23 24 24 22 22 23 21 20 20 19 19 19 18 16 14 14 14 15 17 17 19 18 15 14 14 17 15 13 13 13 14 13 13 13 13 11 9 9 9 8
1 1 1 2 4 5 6 5 2 6 6 10 9 9 3 5 4 2 2 2 4 3 6 7 5 6 12 12 6 1 2 1 5 6 9 13 14 14 12 14 15 15 17 17 19 20 23 22 22 22 23 23 22 19 19 18 18 18 17 16 17 18 17 17 17 17 18 18 16 14 15 17 18 17 15 14 14 13 13 13 13 11 10 9 8 7
2 3 2 1 2 4 2 3 2 2 5 6 7 12 13 1 3 3 1 1 5 8 3 4 1 4 10 7 4 5 5 3 3 7 13 15 16 15 12 12 15 15 16 19 22 23 23 24 23 23 23 23 23 21 20 17 18 17 16 15 19 20 20 18 17 17 17 17 15 16 18 17 17 17 15 16 16 15 15 14 13 11 11 10 9 7
4 2 1 0 3 4 5 5 3 4 3 6 9 12 12 9 7 8 8 9 7 8 8 2 3 9 9 3 5 6 5 2 1 6 10 13 15 15 16 16 14 15 19 20 21 21 20 20 22 22 23 22 20 19 21 20 19 17 15 18 22 23 23 22 20 19 19 17 16 16 17 17 15 16 16 17 17 15 14 13 13 12 11 10 10 9
2 2 3 2 1 1 4 6 8 1 8 8 11 10 10 10 7 7 9 6 9 13 4 3 4 9 11 1 3 6 4 2 4 6 9 11 13 15 17 15 16 18 21 21 21 21 21 21 21 22 21 20 19 20 21 21 18 14 16 21 24 25 23 21 21 21 20 20 19 17 17 17 16 16 16 16 16 15 14 13 13 13 12 11 12 11
3 1 3 6 5 2 2 4 3 3 4 6 2 8 4 4 3 7 6 11 12 15 20 13 7 3 15 2 6 5 3 5 6 9 10 14 15 15 14 18 22 22 21 21 21 22 23 23 24 21 21 20 20 22 20 18 15 16 21 22 23 24 25 24 22 19 20 19 18 17 17 17 16 16 15 15 15 15 15 14 15 14 12 12 12 11
1 5 2 2 2 4 6 2 2 2 4 4 1 1 5 5 4 5 7 9 11 14 13 6 5 7 8 4 6 2 3 7 10 12 16 19 17 19 20 21 21 23 24 23 24 24 25 24 23 22 22 21 20 21 19 17 15 21 22 21 23 24 24 23 22 21 20 19 17 18 19 19 18 16 15 15 15 15 15 16 16 16 15 13 13 13
3 1 1 3 2 3 5 1 0 4 5 6 2 7 8 5 6 6 9 6 8 9 11 6 9 9 2 4 4 1 4 8 15 18 20 21 21 22 20 21 24 25 25 25 25 23 25 24 25 24 24 22 21 20 18 16 20 23 24 24 26 24 23 23 22 22 20 19 20 20 19 19 18 18 17 16 18 18 17 16 15 15 15 15 14 14
2 7 4 3 6 4 2 0 4 5 1 2 6 8 6 4 0 2 7 8 7 9 12 10 14 16 11 10 5 2 7 13 17 19 22 22 21 21 22 24 26 27 27 27 26 25 25 25 27 25 23 23 23 19 17 22 21 21 22 24 25 23 24 22 22 21 19 20 20 19 19 19 18 17 18 17 18 17 17 16 15 15 15 15 14 13
2 4 2 2 3 2 1 4 3 4 5 8 4 3 6 4 2 2 2 7 10 10 11 14 15 15 11 11 5 8 11 15 18 21 22 21 20 22 24 28 29 28 26 24 24 24 26 26 25 24 24 23 19 17 20 21 24 23 22 22 21 23 22 22 19 19 18 19 17 16 18 20 19 18 17 17 18 18 17 17 16 16 16 15 15 15
2 2 1 4 4 3 1 2 4 2 4 6 4 4 3 3 1 8 3 6 6 14 13 13 13 14 6 5 3 8 13 17 17 19 19 20 22 24 27 27 26 26 25 25 24 27 27 27 26 24 22 19 19 21 24 25 23 25 21 19 20 20 21 20 21 20 19 19 18 19 19 19 19 18 17 17 18 17 17 18 18 18 17 17 15 15
1 1 3 4 7 6 1 4 4 4 3 3 5 4 1 1 4 6 3 2 4 9 10 15 18 11 7 2 7 8 16 19 17 18 18 20 24 29 28 26 26 26 25 25 26 27 27 27 25 22 17 19 22 23 23 23 24 21 19 21 22 21 22 20 18 18 18 18 18 20 20 20 19 20 18 19 18 18 17 16 16 16 16 15 16 15
1 3 4 10 9 7 3 4 2 2 7 5 4 3 2 4 7 7 7 4 3 3 10 12 17 17 11 2 1 11 19 19 15 17 21 24 27 27 26 27 26 25 26 28 28 27 27 26 23 17 20 23 24 23 24 22 21 23 22 22 20 18 18 19 18 18 18 17 16 19 19 19 17 17 17 18 18 17 17 16 15 15 15 15 15 15
2 2 2 5 8 6 4 2 3 5 10 10 4 3 1 3 2 2 9 6 4 5 7 12 16 15 5 6 3 19 22 14 16 19 23 26 29 29 27 27 28 27 29 29 29 28 24 21 20 23 27 26 25 24 23 21 21 21 23 21 19 21 21 19 18 18 18 19 19 18 18 18 18 18 19 19 17 18 17 16 16 16 15 16 15 15
3 1 3 5 6 5 6 4 4 8 12 8 8 4 1 2 1 2 5 4 7 8 10 14 13 15 1 2 15 20 23 12 17 21 27 27 26 26 28 32 32 28 29 30 28 24 22 19 20 23 25 25 23 20 22 23 21 20 20 20 20 22 23 21 20 19 19 20 20 19 18 18 18 20 19 19 16 18 17 17 16 15 17 16 15 16
1 1 1 8 6 1 5 3 3 5 2 4 1 3 2 3 2 1 3 3 7 8 9 11 18 17 13 18 21 24 22 16 23 27 26 27 26 28 30 29 28 30 30 29 28 25 23 25 28 26 25 24 22 23 22 21 21 22 21 20 19 19 21 22 21 22 23 21 21 19 17 18 18 18 19 18 17 18 18 17 16 15 16 16 16 16
2 2 4 6 7 8 10 10 11 10 9 2 4 3 4 4 3 2 6 5 9 6 13 11 17 22 26 28 29 25 20 19 24 27 30 25 26 31 31 29 29 28 26 27 26 26 30 29 26 27 26 22 23 22 21 20 21 21 23 23 21 21 21 22 23 22 23 21 19 17 18 18 18 18 17 17 17 17 17 16 17 17 15 15 17 16
1 0 3 2 2 7 9 10 13 9 10 8 4 3 2 2 1 1 4 7 12 17 16 14 15 26 34 32 29 27 19 23 29 30 31 29 32 31 29 29 30 28 28 27 25 27 29 27 29 28 26 25 24 21 19 21 24 26 27 28 26 23 23 23 20 20 19 18 17 17 18 17 16 16 16 15 15 16 15 15 16 16 16 16 15 16
1 1 1 2 6 10 13 14 14 8 8 9 9 2 4 2 2 1 5 8 12 14 18 12 21 24 29 31 30 26 22 25 30 29 30 32 30 28 28 31 32 30 27 26 30 30 29 30 30 27 27 28 25 21 22 26 27 26 23 23 22 22 20 18 20 19 18 17 18 18 18 16 16 17 16 14 14 14 15 15 15 15 16 15 15 15
1 1 1 3 7 8 13 14 11 8 5 7 8 3 3 4 2 3 9 9 11 10 17 27 29 27 27 27 26 24 27 33 30 32 30 30 30 31 31 32 31 28 29 32 30 30 32 30 26 30 31 27 23 23 25 24 25 21 21 21 21 19 19 18 18 19 19 19 18 17 16 16 15 15 15 15 14 15 15 15 15 15 15 14 14 12
1 1 1 2 9 11 12 9 2 3 8 5 4 3 1 1 3 7 11 13 12 15 20 24 27 28 24 22 22 26 30 30 28 27 27 31 31 32 33 32 30 30 31 31 30 33 31 30 30 31 29 23 24 25 26 26 22 21 21 21 21 20 19 19 19 19 19 18 18 17 17 17 16 15 16 15 15 15 15 14 14 14 14 15 16 16
2 3 3 1 3 6 2 2 3 9 6 3 3 3 1 5 6 6 10 15 17 18 20 23 25 23 16 17 24 29 29 27 27 27 29 31 30 33 32 31 32 32 32 33 33 31 30 31 31 27 23 24 25 29 27 23 23 23 22 21 21 21 20 19 20 20 19 18 17 16 16 16 15 14 15 15 15 14 15 15 14 14 14 14 14 15
3 2 3 1 4 2 1 9 17 7 1 3 5 3 3 7 8 9 8 10 11 18 24 23 18 15 15 21 30 30 31 30 29 30 30 28 29 30 28 26 28 32 35 34 32 32 31 32 29 19 22 27 32 28 24 23 22 22 22 21 21 21 21 21 22 21 19 18 17 16 16 14 15 15 15 15 15 15 15 15 14 14 14 14 15 14
1 1 3 3 6 6 12 10 18 4 6 4 1 1 5 10 13 14 11 12 15 17 16 16 17 16 21 26 31 32 33 34 31 26 29 30 29 26 24 25 29 31 30 29 33 34 33 31 20 22 26 26 25 26 24 24 23 22 22 22 23 22 23 22 21 19 18 18 17 17 16 16 15 15 15 15 15 14 14 14 14 14 14 15 14 14
1 1 1 1 3 8 14 17 14 3 3 4 4 5 8 13 16 18 17 20 18 11 12 15 17 22 27 29 31 34 33 31 29 30 29 27 26 24 25 28 29 28 29 31 29 29 27 25 20 21 23 32 29 25 24 24 22 20 21 23 23 24 21 20 19 18 18 18 17 17 17 17 16 16 16 15 15 15 15 15 15 14 14 14 13 12
3 3 1 1 2 6 8 12 6 8 4 3 6 3 8 10 11 17 22 13 15 19 20 18 20 27 30 27 27 29 30 31 31 31 32 28 26 27 30 29 28 31 32 32 34 33 31 26 22 26 27 27 25 24 23 22 19 21 24 25 23 21 21 20 20 18 18 18 18 18 18 18 17 17 16 15 15 15 15 15 14 14 13 12 14 15
3 2 1 1 2 4 2 7 5 5 7 5 5 2 6 10 13 19 22 18 16 15 13 17 26 28 28 28 28 27 28 31 29 27 27 27 28 31 30 27 30 29 30 28 28 28 30 24 22 25 27 25 24 23 23 20 20 24 25 23 21 20 20 20 19 20 19 19 18 18 18 18 18 18 16 16 15 15 15 15 14 14 13 13 14 13
5 3 1 3 2 4 5 4 7 10 8 4 2 5 8 15 15 14 17 22 17 7 11 22 28 29 30 30 27 27 29 29 24 21 23 26 32 32 33 32 29 29 29 30 30 31 23 19 25 30 29 27 25 25 21 19 22 23 22 22 21 21 20 20 20 20 20 20 19 19 19 19 19 18 17 16 16 15 15 15 15 14 12 14 14 13
4 2 1 3 1 1 4 6 5 3 3 2 6 2 5 8 7 13 15 19 5 5 20 26 31 32 32 29 29 28 28 26 24 22 24 29 31 34 33 32 33 32 29 27 27 23 19 21 25 24 24 26 25 23 19 21 24 23 21 22 21 21 20 20 20 21 21 21 20 19 20 20 19 19 18 16 15 16 16 15 13 14 13 14 14 15
5 5 1 2 1 1 2 3 3 4 2 5 4 8 10 8 10 15 12 13 5 21 24 27 29 30 31 30 30 28 22 20 21 20 23 30 33 30 30 32 32 31 30 29 29 27 26 27 26 26 26 25 25 23 24 26 25 22 22 21 21 21 21 20 21 21 22 21 20 20 21 19 19 18 17 15 14 14 14 14 14 13 13 13 14 14
5 3 3 0 0 0 3 2 4 3 6 4 8 11 13 10 18 12 10 10 17 25 26 26 29 28 28 27 26 23 20 21 24 24 29 33 32 30 29 29 29 30 31 31 27 26 28 29 29 29 27 26 24 24 25 24 22 23 22 21 20 20 20 21 21 21 21 20 20 20 20 18 18 18 17 16 16 13 12 12 13 14 14 14 13 14
3 1 2 4 2 3 4 4 3 3 2 7 6 11 15 15 13 9 13 15 22 25 25 26 25 27 25 25 21 20 21 21 25 29 32 32 31 32 30 29 29 28 30 30 30 28 25 24 23 26 27 24 25 25 24 22 22 22 21 21 20 21 21 21 21 21 20 19 20 21 21 18 17 18 18 16 13 12 13 13 14 15 15 15 14 14
1 2 3 2 3 3 2 4 5 6 5 4 9 16 10 13 8 12 13 18 22 25 25 24 26 23 24 24 23 22 24 26 28 29 30 30 31 30 29 29 30 30 27 26 25 24 24 24 26 27 27 25 24 24 22 22 22 21 21 20 21 22 21 21 21 20 20 21 21 21 20 20 18 18 15 14 14 12 13 14 14 13 14 13 13 15
1 1 2 2 4 2 0 4 5 6 1 12 14 12 8 11 10 12 17 20 21 22 24 23 21 24 22 24 25 26 27 28 28 28 28 31 29 29 30 30 31 31 31 30 29 28 25 26 26 25 25 23 24 23 23 23 24 21 21 21 22 21 20 20 20 20 21 21 21 20 20 19 20 18 14 13 13 13 14 14 12 13 13 14 14 10
2 1 2 1 4 4 2 1 4 4 14 9 9 11 12 10 12 14 17 18 18 19 19 20 21 21 23 24 26 25 26 27 25 26 29 29 28 29 28 28 29 29 28 28 28 30 30 27 24 24 25 25 23 23 22 22 21 20 22 23 21 20 20 20 20 20 20 19 20 20 19 19 19 18 17 16 14 14 14 14 12 13 14 13 8 5
6 2 3 5 1 2 4 6 8 11 11 10 11 13 14 15 14 15 15 17 18 17 17 18 21 23 23 25 25 25 24 23 25 28 27 27 27 26 27 28 29 29 29 31 31 29 26 25 28 28 26 23 25 24 23 21 20 22 23 21 20 20 20 20 20 20 20 20 20 20 19 19 18 18 16 15 15 15 14 13 12 13 13 10 5 6
1 2 1 2 3 7 13 15 14 10 10 12 10 10 11 12 13 14 16 17 16 17 16 17 21 22 24 24 25 23 21 25 27 26 27 27 27 28 27 27 27 29 30 25 25 28 27 27 25 25 27 27 27 25 21 20 20 22 21 20 19 19 19 20 20 20 21 20 19 20 19 19 18 18 17 17 14 14 12 12 12 12 12 7 5 6
2 2 3 3 4 7 4 2 7 14 15 14 14 12 11 13 14 15 17 16 18 20 19 18 20 24 25 26 26 25 26 25 25 26 28 26 27 29 30 28 28 28 28 30 30 27 25 27 27 28 29 29 26 22 21 22 19 19 19 20 19 19 20 20 20 21 20 20 20 19 17 17 14 15 16 15 14 14 13 13 12 12 9 5 6 5
1 3 6 7 8 6 9 13 13 9 11 16 12 11 15 17 18 19 17 18 19 20 21 21 22 23 22 22 24 25 25 25 26 26 25 25 24 26 27 27 29 29 29 28 28 28 28 24 24 26 28 26 24 22 21 20 20 19 20 19 19 19 20 19 20 20 20 21 19 16 16 15 19 18 14 14 14 14 14 13 12 11 5 5 6 6
1 4 3 3 5 9 14 10 11 16 9 2 7 13 14 16 18 20 20 20 21 22 24 25 23 22 22 22 23 23 25 26 25 25 27 26 25 24 26 28 29 30 29 29 29 27 24 23 27 29 28 26 23 22 20 21 20 20 21 19 19 19 19 20 23 22 21 19 16 16 15 14 14 14 14 14 13 13 13 12 13 9 4 3 4 5
1 4 3 3 6 5 6 12 14 11 11 12 15 16 18 18 18 19 19 20 20 21 21 24 25 23 22 22 21 22 24 23 26 26 28 25 24 27 28 28 29 29 27 26 24 26 26 26 26 26 26 23 22 20 20 20 20 20 19 19 18 18 19 22 20 20 19 17 16 15 16 15 14 14 14 13 13 14 15 16 11 2 3 5 6 10
3 3 2 3 3 7 9 9 9 10 12 13 15 17 17 17 16 17 18 19 19 18 20 22 24 24 23 23 21 20 23 24 26 25 25 23 25 26 27 29 28 28 28 29 27 24 26 28 28 26 26 23 20 20 20 20 20 20 19 18 18 19 19 20 18 17 17 16 15 17 17 15 14 13 13 13 13 12 13 13 6 5 3 6 7 8
Wind_Direction
292 58 36 25 347 344 356 360 342 330 322 325 238 281 272 284 291 293 338 49 360 317 24 25 65 76 62 44 36 31 47 59 56 54 50 46 39 35 30 28 24 22 17 9 9 8 6 4 3 0 359 356 354 353 350 351 351 350 349 347 351 349 349 347 348 347 343 345 342 341 341 339 334 330 325 315 310 273 253 257 253 246 233 239 230 225
286 58 28 356 335 323 329 338 320 127 203 268 292 291 321 253 310 314 312 104 25 18 231 120 77 73 73 57 45 53 53 52 49 48 49 44 41 33 27 23 19 15 10 7 6 5 5 3 1 359 357 354 352 351 348 347 345 341 342 345 345 346 345 345 346 341 337 338 338 329 327 328 325 324 322 322 321 319 312 296 279 268 258 252 247 240
49 50 18 1 340 249 339 2 345 263 226 213 302 323 295 343 300 277 253 132 181 331 283 95 339 101 89 73 70 60 61 67 57 59 50 43 35 29 25 17 11 7 6 4 2 2 1 359 359 358 354 352 349 344 342 340 337 337 338 340 342 342 341 342 342 340 337 330 324 318 312 316 314 309 311 308 302 299 299 301 292 282 272 259 252 249
63 44 16 35 216 184 189 2 326 151 206 279 326 345 343 324 350 332 153 58 266 299 270 38 299 127 123 107 85 71 68 70 70 61 55 43 33 28 21 17 9 5 2 360 358 356 355 355 355 353 350 347 342 339 337 337 334 331 331 333 335 336 338 338 340 338 334 329 321 316 312 310 305 303 296 293 291 289 292 299 298 285 279 271 262 256
82 43 76 201 201 265 310 341 5 338 11 171 242 318 314 330 319 259 308 318 290 329 264 256 214 156 181 163 131 107 101 76 65 60 53 43 41 28 18 17 14 6 358 354 352 353 352 351 352 349 344 340 336 334 331 330 328 323 321 323 328 330 332 334 335 337 336 333 329 322 314 310 308 305 307 305 305 308 307 300 294 294 283 269 265 259
82 76 198 247 341 13 317 34 28 322 333 328 173 297 298 309 301 299 297 317 309 273 152 349 324 287 170 176 154 138 151 76 56 45 37 29 24 17 13 9 4 3 358 354 350 349 347 346 342 342 339 338 333 329 323 318 317 313 308 312 317 319 319 323 327 331 332 330 328 326 321 318 316 312 311 310 312 313 308 304 302 295 291 280 260 256
33 142 293 349 301 279 68 86 18 301 297 348 2 307 296 298 292 292 308 310 331 332 13 323 305 317 150 185 169 159 114 73 50 39 26 21 14 11 7 1 358 352 350 350 348 347 346 343 338 334 334 331 328 323 316 309 310 306 297 299 310 315 314 311 315 321 320 320 321 318 310 303 303 303 300 301 304 302 301 303 300 295 292 288 282 270
310 43 328 215 335 13 19 12 67 245 288 17 326 345 311 301 291 294 297 254 274 19 270 156 250 297 306 177 162 166 122 61 39 22 13 9 2 4 360 356 354 349 348 346 343 342 341 339 336 333 331 329 328 322 314 310 314 315 305 298 307 315 318 316 312 314 314 314 312 309 306 297 293 292 294 297 296 295 294 294 296 297 294 293 290 287
50 348 3 3 356 16 17 331 305 198 299 334 335 333 299 290 279 294 281 283 295 327 0 128 119 301 301 57 159 178 234 149 26 6 355 349 351 352 354 350 347 344 341 343 342 340 338 337 334 331 330 329 326 325 317 315 320 317 307 303 309 317 319 318 318 315 312 309 305 304 302 299 293 292 293 294 293 293 295 291 291 291 293 292 290 286
87 23 357 282 334 6 316 317 235 212 341 322 320 276 235 211 243 260 271 281 257 259 351 28 15 327 297 315 183 182 216 351 0 354 356 349 341 345 345 344 341 339 337 337 337 339 339 335 331 328 326 325 326 322 318 316 319 318 309 306 309 314 318 318 315 315 313 309 304 302 303 301 297 293 292 292 293 293 292 290 291 288 283 286 286 287
341 61 15 234 23 331 304 312 229 210 255 296 273 279 237 195 246 180 228 262 294 316 2 58 6 324 296 294 302 288 25 45 346 342 346 349 342 339 333 333 335 335 334 336 334 328 330 332 330 329 326 325 324 322 319 318 316 315 312 308 308 311 311 312 312 311 309 307 299 298 303 301 297 295 295 294 292 292 291 290 291 289 283 269 263 272
177 184 192 117 270 284 189 283 162 261 259 288 351 349 336 273 289 208 4 333 3 313 10 34 54 321 288 295 109 86 104 165 328 328 340 340 335 329 328 325 329 333 333 331 332 329 329 331 330 328 325 324 321 320 319 317 316 315 312 311 311 313 315 315 312 311 310 308 302 298 300 301 298 295 294 294 294 292 291 290 289 290 288 284 277 249
185 113 351 132 164 359 323 285 159 185 277 353 1 4 11 344 346 345 354 349 331 295 314 76 14 302 263 331 94 131 126 215 262 318 322 322 318 324 330 329 330 331 331 331 330 329 328 325 325 324 321 321 319 317 316 316 317 317 315 314 315 315 317 315 314 313 312 309 303 303 303 302 300 294 294 294 291 290 288 288 287 288 286 286 285 281
133 108 343 118 147 185 299 347 6 39 7 18 16 9 13 356 360 325 338 318 303 300 353 173 5 272 293 330 138 147 157 259 260 276 282 299 310 328 334 329 329 334 335 330 325 324 323 323 323 322 321 318 316 316 316 317 318 319 316 317 316 315 315 315 313 313 312 312 309 305 304 304 301 294 292 292 292 291 288 287 288 287 286 285 284 283
342 89 66 357 21 43 356 42 20 338 354 44 228 11 32 9 326 316 332 329 309 302 308 315 307 346 328 54 171 143 169 307 277 293 308 332 339 336 329 338 339 331 326 326 325 325 325 325 325 322 320 318 318 319 318 317 318 319 317 315 314 314 314 314 313 311 312 310 307 303 302 302 300 295 292 290 292 292 288 287 286 286 284 284 283 283
275 263 77 62 318 335 12 44 292 325 176 98 229 221 8 356 313 273 311 289 299 305 302 289 271 301 285 83 134 135 266 297 336 336 335 339 344 344 344 338 330 328 327 327 326 326 326 326 324 323 320 320 319 319 318 319 321 318 313 313 314 313 314 314 314 313 310 307 307 304 301 299 298 294 290 288 289 289 290 288 287 285 284 281 280 280
290 107 63 341 81 43 24 279 67 310 9 355 318 22 343 301 218 280 284 251 270 272 266 300 291 301 340 148 111 147 306 332 343 347 345 343 346 343 334 331 328 327 327 326 326 326 326 326 326 324 323 320 319 320 322 323 318 313 313 314 316 315 315 314 313 310 307 306 306 305 302 299 297 295 289 289 289 290 289 287 285 285 286 285 282 280
317 303 16 5 2 92 338 64 66 8 317 318 5 7 306 144 271 65 318 297 289 295 288 306 307 306 326 316 149 222 350 349 345 342 342 343 340 333 330 329 326 325 324 324 324 325 326 325 327 325 321 321 322 327 324 315 312 314 315 316 316 316 316 315 312 310 308 307 306 304 302 300 297 295 293 289 290 290 289 286 286 285 285 284 285 286
294 294 108 106 292 179 163 187 137 99 0 62 58 320 337 2 299 340 268 313 322 296 299 299 302 289 301 298 346 350 347 342 344 345 341 335 334 333 329 325 324 323 323 324 324 326 328 328 326 324 325 328 330 322 313 311 314 315 316 318 318 317 313 311 310 307 306 307 305 303 301 300 297 295 293 293 293 292 287 286 285 284 285 285 285 283
242 293 325 164 319 332 203 349 335 52 90 96 144 61 12 249 304 315 327 282 277 291 313 292 314 296 303 334 350 343 343 345 348 347 335 330 330 329 327 325 323 323 323 324 326 327 326 325 324 325 330 334 323 315 314 317 317 317 323 326 315 306 307 308 308 308 308 308 306 305 302 300 299 295 294 291 290 289 288 286 285 285 284 284 283 283
227 321 288 347 316 289 354 21 1 23 6 11 14 44 92 28 207 221 214 212 294 302 298 309 311 286 323 4 336 347 347 345 355 341 332 329 330 330 325 322 321 323 323 323 325 327 326 325 327 327 334 325 318 317 320 320 323 325 320 309 310 307 308 310 309 308 308 309 308 306 302 301 299 298 295 292 290 289 286 284 282 283 286 285 284 282
270 214 283 310 330 1 70 39 15 11 70 80 15 33 328 6 352 340 319 99 25 331 297 311 295 283 312 110 41 343 340 343 358 346 331 329 328 324 322 320 322 323 324 325 328 325 326 325 329 335 323 323 323 323 321 327 326 316 309 316 315 312 309 309 307 308 307 308 305 302 300 298 297 294 292 292 291 290 289 286 282 284 279 280 281 282
292 269 292 302 313 319 41 2 243 115 87 69 11 103 58 118 269 312 317 328 329 262 270 271 289 286 103 154 357 337 336 351 350 342 331 327 324 322 322 323 323 323 326 328 326 329 331 332 331 325 325 325 324 324 328 323 315 316 318 316 315 313 309 309 307 306 307 308 305 299 296 295 294 293 292 291 290 289 289 288 288 285 284 282 280 279
293 250 280 246 253 115 98 115 113 108 124 124 76 76 133 44 79 254 281 331 287 300 310 318 282 278 2 222 331 339 334 347 344 338 331 325 322 324 325 328 328 324 326 328 327 325 330 333 328 326 324 324 327 332 323 322 322 321 320 319 316 314 313 310 308 308 307 306 302 297 294 293 293 294 293 292 291 291 290 290 287 287 284 283 284 282
269 87 314 318 339 3 147 190 185 222 227 58 66 80 26 121 92 133 120 177 291 279 287 312 297 292 304 320 320 329 332 335 335 333 330 324 324 327 325 326 327 327 326 327 327 331 331 329 328 328 326 328 332 326 326 326 326 326 324 324 322 318 313 308 307 305 305 303 299 295 294 293 295 295 295 293 292 291 291 288 289 286 283 284 281 281
280 8 356 10 356 335 336 335 333 329 339 16 109 123 77 67 38 339 314 324 297 304 313 298 287 288 304 314 317 327 339 336 331 329 328 324 325 328 329 326 326 328 326 327 330 328 327 328 326 325 329 331 327 326 329 332 332 329 323 316 309 306 303 302 301 298 300 300 298 296 297 295 294 294 294 292 292 291 292 292 289 286 283 281 282 279
108 351 24 24 271 289 286 298 303 335 315 302 341 97 85 78 225 325 310 300 310 311 300 276 276 303 307 313 319 326 338 336 330 330 331 326 327 327 323 322 325 326 326 326 328 329 328 326 328 330 331 328 328 329 333 332 326 319 313 309 307 308 309 308 307 306 303 301 300 300 297 293 293 295 293 291 292 293 290 287 285 285 284 282 281 280
107 202 87 317 257 264 281 285 292 315 294 299 314 315 141 189 113 329 309 302 309 309 292 295 310 307 306 313 319 326 332 332 330 330 327 327 323 322 323 323 322 325 327 329 330 330 328 326 327 328 328 326 326 330 330 326 320 316 317 317 316 314 315 318 319 316 312 309 304 300 296 293 294 294 293 292 290 286 285 282 278 278 281 282 280 276
310 211 324 75 258 261 276 273 281 281 259 293 288 228 189 148 183 245 293 304 310 296 294 305 311 308 309 312 319 328 329 329 329 329 324 318 319 324 325 323 323 325 329 330 329 328 329 328 325 329 329 328 332 331 329 328 324 326 327 323 319 320 325 328 323 316 312 308 304 301 298 295 293 293 295 297 293 292 290 286 281 283 283 280 276 274
235 186 233 224 284 289 275 277 223 245 300 273 225 217 176 238 260 296 305 305 300 290 290 300 306 305 308 315 324 324 326 327 326 323 321 320 324 326 325 323 322 325 329 329 328 329 329 328 328 329 332 339 335 330 331 328 327 331 329 326 324 323 324 325 321 318 314 309 305 303 301 298 295 294 298 297 298 296 292 289 285 284 285 284 282 278
329 17 95 183 280 291 305 161 232 297 307 265 161 161 313 320 314 316 306 308 312 298 308 310 309 304 318 326 318 320 321 321 324 327 325 322 325 327 327 326 327 326 326 326 328 327 327 328 328 330 335 333 333 330 327 327 325 327 327 327 324 321 323 325 323 320 315 311 308 306 303 301 299 300 301 301 297 292 291 289 287 287 286 285 284 283
16 352 97 75 286 268 149 333 324 345 73 138 161 203 326 335 334 329 304 293 295 300 309 311 306 306 319 323 318 320 323 328 329 328 326 322 323 324 325 327 326 324 324 325 325 328 329 328 332 340 338 335 331 330 329 324 323 322 327 328 328 328 326 323 319 315 313 312 313 312 311 309 308 305 301 296 292 293 294 293 291 288 286 282 282 283
28 334 349 346 321 319 335 343 312 46 121 153 97 85 353 342 341 323 312 309 304 305 307 317 311 318 321 327 325 325 326 326 329 330 322 315 318 324 327 329 326 323 321 323 325 326 328 328 330 335 335 331 332 327 327 324 321 323 326 328 325 319 313 311 313 315 313 311 309 311 313 312 309 305 301 296 294 292 292 292 290 286 283 286 287 286
193 43 65 266 336 288 327 330 304 252 347 16 94 74 25 353 334 326 325 322 321 319 309 316 314 320 323 327 326 324 326 325 324 321 315 314 319 325 330 330 325 322 323 324 325 326 324 326 329 333 335 334 329 329 326 323 321 325 328 325 322 322 321 322 323 322 320 321 324 324 320 317 313 308 304 301 295 292 290 292 291 288 288 290 291 289
58 71 78 164 308 308 318 324 334 25 347 95 128 71 16 341 320 315 310 317 323 325 325 322 321 324 323 322 322 319 317 317 320 320 314 314 322 328 330 327 326 326 323 323 324 324 324 324 328 331 339 335 328 326 324 321 326 330 327 326 322 320 320 321 320 320 322 322 321 319 317 316 315 311 306 302 298 296 294 295 295 292 294 294 296 297
37 33 171 214 284 258 335 9 358 323 360 129 173 125 345 333 342 333 317 321 330 324 321 319 322 321 321 322 321 321 319 319 316 314 313 318 324 328 327 327 326 324 324 326 326 324 325 333 338 338 334 329 328 324 320 322 332 329 325 322 321 321 319 318 320 321 322 320 318 317 315 312 311 311 309 304 301 300 301 300 297 295 294 295 295 293
115 143 54 344 82 352 308 284 251 270 273 88 15 352 5 350 344 340 317 310 322 320 334 324 323 324 323 324 324 323 323 318 314 315 318 321 326 326 325 323 324 324 323 321 322 323 327 331 329 331 326 324 325 323 324 334 332 325 321 322 323 322 320 320 321 322 322 319 317 315 316 315 311 307 307 308 303 302 302 299 297 294 293 291 292 289
26 40 310 310 352 151 296 306 309 306 346 94 86 350 4 322 306 311 306 294 327 326 336 330 328 327 326 324 324 326 324 318 317 316 323 323 324 324 323 321 322 322 323 324 324 325 331 330 331 329 327 323 323 324 331 334 328 322 321 322 322 322 321 321 321 323 321 318 315 316 318 314 311 308 305 303 306 305 302 298 294 293 292 290 290 291
77 72 41 66 337 318 321 317 303 304 336 141 321 339 332 328 322 318 296 282 350 343 335 333 326 324 323 323 323 325 325 317 311 313 319 320 320 322 321 321 320 320 322 323 326 327 330 330 331 328 326 324 323 325 328 328 325 324 323 321 321 320 319 320 320 321 319 316 315 319 315 312 309 306 303 300 294 292 287 295 295 293 291 289 290 288
43 11 327 182 136 275 308 293 307 227 260 303 337 332 334 341 326 299 289 304 343 333 331 328 324 322 321 320 322 322 323 317 316 315 317 315 317 320 321 320 321 321 322 325 324 326 325 324 324 326 326 325 324 326 328 326 323 323 320 319 319 318 318 318 318 315 313 313 316 314 313 310 310 311 310 303 290 284 289 293 295 294 292 288 285 283
354 359 26 357 320 293 263 283 272 279 349 359 318 339 346 336 308 326 330 314 328 325 324 324 317 317 317 319 323 317 315 309 307 311 313 313 318 321 321 320 319 321 323 323 324 328 327 327 327 324 325 324 325 326 326 325 324 321 321 319 318 318 317 316 316 314 312 314 315 314 312 310 309 308 307 306 296 293 293 291 289 288 286 282 281 281
169 207 199 225 316 333 294 289 279 240 172 273 7 347 347 342 7 335 309 322 320 319 319 318 316 317 318 317 318 313 311 312 312 312 312 316 319 318 319 321 321 321 322 322 325 330 329 328 326 325 324 325 325 327 325 325 323 321 319 319 317 316 316 316 316 314 314 315 314 312 310 308 307 308 304 297 296 291 288 286 283 278 281 281 284 282
82 303 320 299 312 266 133 294 330 337 80 41 351 333 11 345 313 312 316 315 321 316 317 318 317 315 319 315 315 314 313 314 314 314 317 318 320 321 320 321 323 324 325 327 330 333 332 326 324 325 327 327 328 327 326 324 322 320 319 317 316 316 317 317 315 315 315 314 314 313 310 308 307 307 303 298 292 288 287 284 278 279 283 282 284 297
128 304 328 231 162 319 269 158 230 274 320 0 360 324 327 313 314 315 319 314 316 319 319 318 316 317 318 317 318 317 315 313 316 318 318 317 319 320 321 322 322 321 322 322 325 326 327 324 325 326 327 328 327 326 325 324 320 320 318 316 318 318 318 316 315 314 313 315 314 312 310 308 307 308 307 304 301 299 293 284 284 290 293 286 297 316
173 231 182 281 146 174 269 271 285 295 301 323 327 315 310 316 317 316 313 312 317 320 321 316 317 319 322 323 320 319 317 317 317 318 319 320 321 321 321 321 321 323 325 325 325 326 327 326 324 324 325 328 328 326 324 323 321 319 317 317 318 319 319 318 316 314 314 316 314 311 309 307 306 307 309 308 310 309 306 303 299 298 296 303 320 316
110 236 56 312 254 248 257 256 273 294 309 305 302 302 308 313 318 321 320 317 318 317 320 319 320 324 325 327 322 321 321 321 321 322 321 321 321 320 321 321 321 323 323 323 326 329 325 324 324 326 327 327 328 326 325 323 321 318 318 318 318 318 319 317 315 315 316 314 312 310 309 306 308 309 310 310 312 311 306 306 303 302 304 323 321 314
212 198 189 262 305 336 315 129 289 313 315 316 318 322 324 330 330 331 324 322 319 321 319 319 324 328 330 328 327 323 323 324 323 324 324 323 322 322 322 322 323 324 326 327 327 327 329 329 328 327 327 327 329 327 325 323 321 318 318 318 319 318 316 314 316 317 316 313 312 311 310 308 309 310 309 311 313 311 307 306 305 304 315 328 317 310
55 140 259 259 267 249 271 294 300 307 302 295 297 320 332 332 332 331 327 322 320 319 322 324 331 330 331 324 326 327 324 325 325 326 325 324 323 321 321 323 324 325 326 324 324 326 324 325 328 328 329 328 328 326 325 323 321 321 321 320 320 319 317 315 318 317 314 313 312 311 309 308 310 311 308 308 309 309 309 309 306 310 324 327 319 310
123 150 252 260 261 262 276 291 328 317 299 265 312 326 330 330 328 327 325 324 323 324 327 329 331 329 326 321 322 328 327 324 326 327 324 322 322 322 322 323 323 323 323 326 327 327 326 326 327 328 327 326 327 326 325 324 322 323 322 320 320 321 320 320 319 316 313 312 312 310 310 310 311 309 308 305 307 304 302 304 306 311 315 312 302 303
246 245 287 297 284 289 331 332 340 339 325 321 324 327 327 327 324 321 320 320 322 324 327 328 324 323 324 323 325 329 326 325 325 325 322 320 320 322 323 323 324 324 322 323 324 324 324 328 328 327 327 326 326 326 326 324 324 322 321 322 323 323 322 320 316 315 314 316 314 313 313 313 311 309 306 305 305 305 304 301 296 291 337 324 327 323
236 266 281 269 284 285 305 314 325 308 296 302 314 318 319 318 318 318 317 318 319 324 327 324 322 323 323 324 324 327 327 324 323 324 322 321 321 323 324 324 324 324 324 327 327 328 329 328 328 326 325 326 327 326 326 324 323 322 323 324 323 320 317 315 313 312 314 315 314 310 311 309 308 306 303 302 303 303 303 307 289 169 41 11 334 333